Location: Torrington
(42.0650°N, 104.1810°W)
Time: 16:50:41
(UTC-06:00)

Amateur Radio Satellites - All Passes

Search period start: 24 September 2017 16:20
Search period end: 25 September 2017 16:20
Location: Torrington, 42.0650°N, 104.1810°W

Satellite Date Start Highest point End Downlink Frequencies (MHz)
Time Altitude Azimuth
MOZHAYETS 4 24 Sep 16:25:34 16:30:15 86° 283° (WNW) 16:34:52
UKube-1 24 Sep 16:28:12 16:29:25 11° 300° (WNW) 16:30:38 .
CUBESAT XI-V 24 Sep 16:54:49 16:59:12 40° 98° (E) 17:03:31 437.345
PCSat 24 Sep 17:03:12 17:06:00 14° 322° (NW) 17:08:50 145.827
ITUPSAT 1 24 Sep 17:05:08 17:09:35 38° 291° (WNW) 17:14:02 437.325
DOVE 4 24 Sep 17:17:28 17:21:51 72° 76° (ENE) 17:26:05 437.250
XW-2D 24 Sep 17:33:54 17:37:12 28° 70° (ENE) 17:40:32 145.860 - 145.880
AO-7 24 Sep 17:34:41 17:39:21 16° 271° (W) 17:44:05 .
RS-15 24 Sep 17:35:22 17:40:08 13° 267° (W) 17:44:50 29.354- 29.394
BEESAT 24 Sep 17:42:02 17:45:15 18° 297° (WNW) 17:48:27 436.000
XW-2F 24 Sep 17:45:09 17:48:38 34° 71° (ENE) 17:52:09 145.980 - 146.000
HO-68 24 Sep 17:45:09 17:50:30 24° 57° (ENE) 17:55:52 435.675
XW-2B 24 Sep 17:46:01 17:49:33 37° 72° (ENE) 17:53:08 145.730 - 145.750
CUTE-I 24 Sep 17:49:26 17:54:25 43° 69° (ENE) 17:59:25 437.470
NUDT-PHONESAT 24 Sep 18:04:33 18:08:08 44° 73° (ENE) 18:11:44 437.300
XW-2C 24 Sep 18:07:06 18:10:56 70° 76° (ENE) 18:14:47 145.795 - 145.815
NO-84 24 Sep 18:12:35 18:14:13 13° 18° (NNE) 18:15:48 435.350 FM
KKS-1 24 Sep 18:14:20 18:18:47 85° 288° (WNW) 18:23:14 437.445
CUBEBUG 2 24 Sep 18:15:40 18:16:19 10° 60° (ENE) 18:16:59 437.445
LilacSat-2 24 Sep 18:20:46 18:24:38 74° 259° (W) 18:28:32 437.200
CUBESAT XI-V 24 Sep 18:32:49 18:36:17 21° 295° (WNW) 18:39:43 437.345
KAITUO 1B 24 Sep 18:34:42 18:38:29 72° 259° (WSW) 18:42:18 145.475/437.950
STARS 24 Sep 18:35:25 18:39:48 66° 102° (ESE) 18:44:11 437.465
SEEDS 24 Sep 18:37:30 18:40:33 20° 66° (ENE) 18:43:35 437.485
BEESAT 3 24 Sep 18:51:20 18:54:16 20° 112° (ESE) 18:57:14 437.485
AAUSAT CUBESAT 2 24 Sep 18:57:31 18:59:46 14° 64° (ENE) 19:02:02 437.432
ZACube-1 24 Sep 19:04:18 19:05:44 11° 61° (ENE) 19:07:10 437.345
CUTE 1.7 + AOD 2 24 Sep 19:06:24 19:10:38 64° 75° (ENE) 19:14:54 437.475
XW-2D 24 Sep 19:08:28 19:11:23 20° 266° (W) 19:14:19 145.860 - 145.880
XW-2F 24 Sep 19:20:21 19:22:51 17° 267° (W) 19:25:22 145.980 - 146.000
Tancredo 1 24 Sep 19:20:22 19:23:01 67° 142° (SE) 19:25:41 437.200
nSIGHT-1 24 Sep 19:21:01 19:21:37 10° 129° (SE) 19:22:13 .
XW-2B 24 Sep 19:21:31 19:23:52 16° 268° (W) 19:26:14 145.730 - 145.750
CUTE-I 24 Sep 19:30:19 19:34:37 25° 266° (W) 19:38:55 437.470
HO-68 24 Sep 19:30:24 19:37:32 74° 256° (WSW) 19:44:43 435.675
XW-2A 24 Sep 19:33:50 19:37:10 52° 74° (ENE) 19:40:31 145.665 - 145.685
NUDT-PHONESAT 24 Sep 19:40:35 19:42:14 12° 269° (W) 19:43:53 437.300
CUBEBUG 2 24 Sep 19:47:56 19:52:11 82° 256° (WSW) 19:56:37 437.445
NO-84 24 Sep 19:49:06 19:52:09 67° 39° (NE) 19:55:00 435.350 FM
UWE-3 24 Sep 19:52:15 19:56:29 64° 75° (ENE) 20:00:54 435.000/436.395/437.385
AO-85 24 Sep 19:58:11 20:01:38 31° 116° (ESE) 20:05:07 145.980
SEEDS 24 Sep 20:12:00 20:15:57 37° 263° (W) 20:19:55 437.485
STARS 24 Sep 20:13:33 20:15:36 13° 298° (WNW) 20:17:39 437.465
ISS 24 Sep 20:17:29 20:20:29 35° 138° (SE) 20:23:32 437.550
BEESAT 3 24 Sep 20:27:47 20:31:34 39° 309° (NW) 20:35:24 437.485
STRAND 1 24 Sep 20:30:04 20:35:15 80° 103° (ESE) 20:40:25 437.568
AAUSAT CUBESAT 2 24 Sep 20:30:44 20:34:47 51° 261° (W) 20:38:51 437.432
Oscar 11 24 Sep 20:31:04 20:35:20 58° 74° (ENE) 20:39:38 .
AO-73 24 Sep 20:33:20 20:37:40 87° 76° (ENE) 20:42:10 145.935
ZACube-1 24 Sep 20:36:59 20:41:19 76° 257° (WSW) 20:45:47 437.345
BEESAT 2 24 Sep 20:37:40 20:41:40 86° 123° (ESE) 20:45:45 435.950
CUTE 1.7 + AOD 2 24 Sep 20:45:30 20:46:52 11° 271° (W) 20:48:14 437.475
nSIGHT-1 24 Sep 20:54:13 20:57:27 89° 314° (NW) 21:00:42 .
Tancredo 1 24 Sep 20:55:43 20:57:43 18° 341° (NNW) 20:59:43 437.200
Max Valier Satellite 24 Sep 21:01:54 21:04:33 19° 68° (ENE) 21:07:15 145.860
SO-50 24 Sep 21:22:57 21:26:01 17° 40° (NE) 21:29:06 436.795
HO-68 24 Sep 21:23:58 21:26:24 12° 274° (W) 21:28:50 435.675
UWE-3 24 Sep 21:31:56 21:33:25 12° 272° (W) 21:34:56 435.000/436.395/437.385
AO-85 24 Sep 21:38:48 21:42:02 24° 314° (NW) 21:45:18 145.980
DELFI C3 24 Sep 21:47:18 21:51:16 87° 264° (W) 21:55:12 145.870
FO-29 24 Sep 21:52:41 21:58:09 57° 101° (ESE) 22:04:14 435.910
ISS 24 Sep 21:53:58 21:56:59 33° 335° (NNW) 22:00:01 437.550
EO-88 24 Sep 21:58:28 22:02:08 70° 76° (ENE) 22:05:48 145.990 - 145.960
Oscar 11 24 Sep 22:09:51 22:11:50 13° 270° (W) 22:13:49 .
STRAND 1 24 Sep 22:11:06 22:13:45 14° 301° (WNW) 22:16:24 437.568
UNISAT 6 24 Sep 22:12:47 22:16:56 30° 96° (E) 22:21:04 437.425
BEESAT 2 24 Sep 22:18:01 22:20:00 13° 321° (NW) 22:21:59 435.950
PCSat 24 Sep 22:21:12 22:25:01 19° 42° (NE) 22:28:49 145.827
nSIGHT-1 24 Sep 22:31:35 22:34:08 21° 344° (NNW) 22:36:42 .
Tancredo 1 24 Sep 22:32:05 22:32:58 11° 1° (N) 22:33:51 437.200
YUBILEINY 24 Sep 22:32:43 22:40:20 32° 69° (ENE) 22:47:54 435.215
Max Valier Satellite 24 Sep 22:34:55 22:38:11 29° 264° (W) 22:41:29 145.860
TIGRISAT 24 Sep 22:35:49 22:40:21 48° 99° (E) 22:44:54 435.000
PRISM 24 Sep 22:46:14 22:49:53 31° 97° (E) 22:53:30 437.425
LO-87 24 Sep 22:50:48 22:54:02 35° 72° (ENE) 22:57:18 145.935 - 145.965
ESTCUBE 1 24 Sep 22:51:32 22:55:28 30° 68° (ENE) 22:59:24 437.505/2401.250
SO-50 24 Sep 23:02:25 23:07:00 76° 239° (WSW) 23:11:37 436.795
SPROUT 24 Sep 23:06:51 23:07:20 10° 61° (ENE) 23:07:49 437.525
VELOX 1 24 Sep 23:17:39 23:18:42 11° 60° (ENE) 23:19:45 145.980
ISS 24 Sep 23:32:03 23:34:11 16° 355° (N) 23:36:18 437.550
FO-29 24 Sep 23:38:53 23:42:57 21° 296° (WNW) 23:47:17 435.910
UNISAT 6 24 Sep 23:49:32 23:53:32 29° 292° (WNW) 23:57:32 437.425
AIST 2D 25 Sep 00:03:12 00:06:40 55° 100° (E) 00:10:06 435.315
PCSat 25 Sep 00:03:37 00:09:05 80° 242° (WSW) 00:14:28 145.827
DUCHIFAT 1 25 Sep 00:05:41 00:08:29 17° 92° (E) 00:11:17 145.980
Tancredo 1 25 Sep 00:06:06 00:08:12 20° 20° (NNE) 00:10:17 437.200
nSIGHT-1 25 Sep 00:09:19 00:11:20 15° 4° (N) 00:13:23 .
TIGRISAT 25 Sep 00:13:23 00:16:40 19° 295° (WNW) 00:19:57 435.000
DX 1 25 Sep 00:20:40 00:22:51 14° 62° (ENE) 00:25:01 434.975-435.025
POLYITAN 1 25 Sep 00:20:48 00:24:41 32° 97° (E) 00:28:30 437.675
PRISM 25 Sep 00:21:53 00:24:58 21° 293° (WNW) 00:28:02 437.425
EO-79 25 Sep 00:24:37 00:28:33 35° 97° (E) 00:32:28 145.935-145.965
LO-87 25 Sep 00:25:48 00:27:36 13° 268° (W) 00:29:25 145.935 - 145.965
ESTCUBE 1 25 Sep 00:28:22 00:32:13 27° 265° (W) 00:36:05 437.505/2401.250
YUBILEINY 25 Sep 00:29:05 00:37:34 58° 269° (W) 00:46:03 435.215
SPROUT 25 Sep 00:38:20 00:42:34 80° 258° (WSW) 00:46:50 437.525
QB50P2 25 Sep 00:38:34 00:42:48 56° 100° (E) 00:47:00 145.880/145.840
VELOX 1 25 Sep 00:50:05 00:54:29 81° 257° (WSW) 00:58:53 145.980
ISS 25 Sep 01:09:00 01:11:34 20° 16° (NNE) 01:14:07 437.550
O/OREOS (USA 219) 25 Sep 01:09:36 01:10:57 11° 97° (E) 01:12:17 437.305
NANOSAT C BR1 25 Sep 01:12:29 01:16:46 75° 284° (WNW) 01:21:00 145.865
Oscar 19 25 Sep 01:19:54 01:22:57 16° 91° (E) 01:25:58 437.125/150
50 SAT 25 Sep 01:30:11 01:33:29 79° 257° (WSW) 01:36:48 437.505
Tancredo 1 25 Sep 01:40:12 01:42:51 55° 218° (SW) 01:45:28 437.200
DUCHIFAT 1 25 Sep 01:40:18 01:44:19 41° 289° (WNW) 01:48:19 145.980
UKube-1 25 Sep 01:44:07 01:48:22 67° 74° (ENE) 01:52:39 .
nSIGHT-1 25 Sep 01:45:29 01:48:25 30° 24° (NNE) 01:51:22 .
M-CUBED/EXP-1 PRIME 25 Sep 01:49:25 01:52:41 59° 106° (ESE) 01:55:53 437.505
PCSat 25 Sep 01:51:06 01:51:32 10° 259° (W) 01:51:58 145.827
DX 1 25 Sep 01:54:14 01:58:30 60° 258° (WSW) 02:02:49 434.975-435.025
MOZHAYETS 4 25 Sep 01:54:19 01:55:34 11° 60° (ENE) 01:56:48
POLYITAN 1 25 Sep 01:56:52 02:00:17 23° 293° (WNW) 02:03:41 437.675
EO-79 25 Sep 02:00:51 02:04:05 21° 294° (WNW) 02:07:19 145.935-145.965
BUGSAT 1 25 Sep 02:09:21 02:13:34 75° 284° (WNW) 02:17:48 437.445
QB50P2 25 Sep 02:15:49 02:18:07 14° 297° (WNW) 02:20:23 145.880/145.840
ITUPSAT 1 25 Sep 02:34:49 02:38:55 29° 67° (ENE) 02:43:02 437.325
ISS 25 Sep 02:45:08 02:48:26 81° 34° (NE) 02:51:43 437.550
O/OREOS (USA 219) 25 Sep 02:45:11 02:49:40 70° 293° (WNW) 02:54:14 437.305
Gurwin Techsat 1B 25 Sep 02:54:41 03:00:02 82° 104° (ESE) 03:05:21 435.225
Oscar 19 25 Sep 02:57:35 03:02:42 64° 287° (WNW) 03:07:46 437.125/150
BEESAT 3 25 Sep 03:07:11 03:09:49 17° 42° (NE) 03:12:24 437.485
BEESAT 25 Sep 03:09:41 03:14:23 65° 73° (ENE) 03:19:08 436.000
nSIGHT-1 25 Sep 03:21:44 03:24:48 39° 221° (SW) 03:27:52 .
UKube-1 25 Sep 03:23:41 03:24:49 11° 270° (W) 03:25:57 .
MOZHAYETS 4 25 Sep 03:27:22 03:31:58 87° 257° (WSW) 03:36:38
RS-15 25 Sep 03:33:19 03:41:25 21° 98° (E) 03:49:31 29.354- 29.394
AO-7 25 Sep 03:38:44 03:46:01 33° 97° (E) 03:53:13 .
CUBESAT XI-V 25 Sep 03:58:08 04:02:33 42° 71° (ENE) 04:06:59 437.345
ITAMSAT 1 25 Sep 04:05:55 04:10:45 37° 98° (E) 04:15:34 435.822/435.867
ITUPSAT 1 25 Sep 04:12:26 04:16:39 31° 264° (W) 04:20:54 437.325
ISS 25 Sep 04:23:06 04:24:28 12° 230° (SW) 04:25:49 437.550
AO-85 25 Sep 04:27:39 04:31:44 36° 50° (NE) 04:36:06 145.980
Gurwin Techsat 1B 25 Sep 04:36:29 04:39:16 14° 301° (WNW) 04:42:02 435.225
BEESAT 3 25 Sep 04:43:49 04:47:44 58° 241° (WSW) 04:51:34 437.485
BEESAT 25 Sep 04:50:16 04:52:36 13° 270° (W) 04:54:56 436.000
BEESAT 2 25 Sep 04:54:51 04:58:52 56° 54° (NE) 05:02:48 435.950
KKS-1 25 Sep 05:12:22 05:16:47 88° 260° (W) 05:21:14 437.445
DOVE 4 25 Sep 05:16:06 05:18:59 17° 93° (E) 05:21:56 437.250
AO-7 25 Sep 05:31:03 05:39:07 58° 295° (WNW) 05:47:09 .
STARS 25 Sep 05:32:03 05:36:19 61° 73° (ENE) 05:40:38 437.465
CUBESAT XI-V 25 Sep 05:36:37 05:40:05 20° 267° (W) 05:43:33 437.345
RS-15 25 Sep 05:39:42 05:51:58 81° 119° (ESE) 06:04:18 29.354- 29.394
ITAMSAT 1 25 Sep 05:45:39 05:50:03 28° 295° (WNW) 05:54:26 435.822/435.867
LilacSat-2 25 Sep 05:55:35 05:56:52 11° 90° (E) 05:58:09 437.200
CUTE-I 25 Sep 06:07:03 06:10:18 16° 91° (E) 06:13:32 437.470
KAITUO 1B 25 Sep 06:07:53 06:08:35 10° 90° (E) 06:09:16 145.475/437.950
AO-85 25 Sep 06:08:11 06:12:03 28° 245° (WSW) 06:16:09 145.980
STRAND 1 25 Sep 06:09:54 06:12:51 16° 60° (ENE) 06:15:48 437.568
BEESAT 2 25 Sep 06:34:07 06:36:07 13° 251° (WSW) 06:38:05 435.950
XW-2D 25 Sep 06:39:28 06:43:03 37° 98° (E) 06:46:33 145.860 - 145.880
XW-2F 25 Sep 06:50:22 06:54:03 46° 99° (E) 06:57:40 145.980 - 146.000
XW-2B 25 Sep 06:51:46 06:55:30 51° 99° (E) 06:59:11 145.730 - 145.750
DOVE 4 25 Sep 06:52:49 06:56:51 41° 288° (WNW) 07:01:01 437.250
CUTE 1.7 + AOD 2 25 Sep 06:53:34 06:54:21 10° 89° (E) 06:55:08 437.475
HO-68 25 Sep 06:58:43 07:03:58 21° 92° (E) 07:09:11 435.675
NUDT-PHONESAT 25 Sep 07:07:48 07:11:30 58° 101° (E) 07:15:08 437.300
STARS 25 Sep 07:11:15 07:13:03 12° 270° (W) 07:14:51 437.465
XW-2C 25 Sep 07:13:10 07:17:01 82° 281° (W) 07:20:46 145.795 - 145.815
AO-7 25 Sep 07:26:22 07:30:08 14° 316° (NW) 07:33:54 .
LilacSat-2 25 Sep 07:27:43 07:31:26 50° 287° (WNW) 07:35:06 437.200
CUBEBUG 2 25 Sep 07:38:31 07:42:12 22° 93° (E) 07:45:54 437.445
KAITUO 1B 25 Sep 07:39:14 07:42:53 51° 286° (WNW) 07:46:29 145.475/437.950
UWE-3 25 Sep 07:42:40 07:45:08 14° 90° (E) 07:47:36 435.000/436.395/437.385
CUTE-I 25 Sep 07:45:30 07:50:47 65° 287° (WNW) 07:56:04 437.470
STRAND 1 25 Sep 07:46:22 07:51:26 71° 258° (WSW) 07:56:33 437.568
RS-15 25 Sep 07:54:34 08:05:51 39° 325° (NW) 08:17:05 29.354- 29.394
SEEDS 25 Sep 07:55:07 07:58:54 32° 97° (E) 08:02:38 437.485
FO-29 25 Sep 08:07:13 08:11:30 24° 65° (ENE) 08:15:36 435.910
AAUSAT CUBESAT 2 25 Sep 08:12:42 08:15:57 22° 94° (E) 08:19:10 437.432
XW-2D 25 Sep 08:14:33 08:16:54 16° 294° (WNW) 08:19:13 145.860 - 145.880
Oscar 11 25 Sep 08:20:49 08:21:25 10° 89° (E) 08:21:59 .
AO-73 25 Sep 08:21:46 08:24:49 17° 91° (E) 08:27:50 145.935
ZACube-1 25 Sep 08:25:22 08:28:53 21° 93° (E) 08:32:22 437.345
XW-2F 25 Sep 08:25:57 08:27:44 13° 296° (WNW) 08:29:31 145.980 - 146.000
CUTE 1.7 + AOD 2 25 Sep 08:26:25 08:30:37 66° 286° (WNW) 08:34:47 437.475
XW-2A 25 Sep 08:27:28 08:30:50 51° 100° (E) 08:34:09 145.665 - 145.685
XW-2B 25 Sep 08:27:40 08:29:13 12° 296° (WNW) 08:30:45 145.730 - 145.750
NUDT-PHONESAT 25 Sep 08:44:07 08:44:50 10° 297° (WNW) 08:45:34 437.300
HO-68 25 Sep 08:45:07 08:52:18 73° 289° (WNW) 08:59:28 435.675
UNISAT 6 25 Sep 09:12:09 09:15:48 27° 67° (ENE) 09:19:33 437.425
CUBEBUG 2 25 Sep 09:14:30 09:18:54 40° 289° (WNW) 09:23:19 437.445
UWE-3 25 Sep 09:17:20 09:21:57 61° 286° (WNW) 09:26:33 435.000/436.395/437.385
DELFI C3 25 Sep 09:25:55 09:27:02 11° 90° (E) 09:28:09 145.870
SEEDS 25 Sep 09:31:12 09:34:23 21° 293° (WNW) 09:37:33 437.485
TIGRISAT 25 Sep 09:34:46 09:38:51 41° 71° (ENE) 09:43:04 435.000
PRISM 25 Sep 09:35:55 09:39:14 24° 68° (ENE) 09:42:34 437.425
AAUSAT CUBESAT 2 25 Sep 09:47:50 09:51:24 29° 290° (WNW) 09:54:57 437.432
FO-29 25 Sep 09:51:02 09:56:25 44° 261° (W) 10:01:27 435.910
Oscar 11 25 Sep 09:53:40 09:58:00 71° 285° (WNW) 10:02:18 .
AO-73 25 Sep 09:56:53 10:01:17 47° 288° (WNW) 10:05:37 145.935
ZACube-1 25 Sep 10:01:00 10:05:16 38° 289° (WNW) 10:09:30 437.345
Max Valier Satellite 25 Sep 10:04:14 10:07:16 23° 95° (E) 10:10:16 145.860
RS-15 25 Sep 10:13:48 10:23:10 24° 359° (N) 10:32:20 29.354- 29.394
HO-68 25 Sep 10:35:00 10:38:48 15° 309° (NW) 10:42:37 435.675
AIST 2D 25 Sep 10:38:06 10:40:50 21° 69° (ENE) 10:43:35 435.315
UNISAT 6 25 Sep 10:48:39 10:52:25 28° 265° (W) 10:56:17 437.425
DELFI C3 25 Sep 10:58:17 11:02:06 54° 286° (WNW) 11:05:55 145.870
DUCHIFAT 1 25 Sep 10:58:33 11:00:43 14° 63° (ENE) 11:02:55 145.980
EO-88 25 Sep 11:00:04 11:03:45 88° 104° (ESE) 11:07:24 145.990 - 145.960
PRISM 25 Sep 11:10:54 11:14:24 27° 264° (W) 11:17:55 437.425
TIGRISAT 25 Sep 11:12:45 11:15:45 18° 268° (W) 11:18:48 435.000
POLYITAN 1 25 Sep 11:13:48 11:17:16 25° 68° (ENE) 11:20:46 437.675
O/OREOS (USA 219) 25 Sep 11:15:56 11:19:48 26° 58° (ENE) 11:23:39 437.305
EO-79 25 Sep 11:17:24 11:20:58 27° 69° (ENE) 11:24:34 145.935-145.965
QB50P2 25 Sep 11:31:15 11:35:13 43° 72° (ENE) 11:39:15 145.880/145.840
YUBILEINY 25 Sep 11:34:38 11:42:14 35° 85° (E) 11:49:49 435.215
Max Valier Satellite 25 Sep 11:37:58 11:41:00 24° 291° (WNW) 11:44:01 145.860
LO-87 25 Sep 11:50:02 11:53:29 41° 99° (E) 11:56:56 145.935 - 145.965
NANOSAT C BR1 25 Sep 12:04:23 12:08:34 82° 75° (ENE) 12:12:48 145.865
AIST 2D 25 Sep 12:11:02 12:13:54 23° 265° (W) 12:16:48 435.315
ESTCUBE 1 25 Sep 12:19:24 12:23:52 60° 101° (E) 12:28:16 437.505/2401.250
SPROUT 25 Sep 12:24:27 12:27:14 17° 92° (E) 12:29:59 437.525
RS-15 25 Sep 12:29:31 12:40:32 37° 33° (NNE) 12:51:02 29.354- 29.394
DUCHIFAT 1 25 Sep 12:31:50 12:35:55 55° 260° (W) 12:40:03 145.980
M-CUBED/EXP-1 PRIME 25 Sep 12:34:36 12:38:51 88° 71° (ENE) 12:42:49 437.505
Oscar 19 25 Sep 12:36:40 12:40:52 25° 65° (ENE) 12:45:04 437.125/150
Gurwin Techsat 1B 25 Sep 12:38:29 12:42:06 19° 61° (ENE) 12:45:43 435.225
VELOX 1 25 Sep 12:40:28 12:43:28 18° 93° (E) 12:46:28 145.980
NO-84 25 Sep 12:41:17 12:45:12 67° 137° (SE) 12:48:49 435.350 FM
POLYITAN 1 25 Sep 12:49:19 12:52:56 28° 264° (W) 12:56:36 437.675
AO-7 25 Sep 12:52:43 12:55:04 11° 40° (NE) 12:57:24 .
EO-79 25 Sep 12:53:10 12:56:40 25° 265° (W) 13:00:12 145.935-145.965
O/OREOS (USA 219) 25 Sep 12:55:05 12:59:14 34° 255° (WSW) 13:03:23 437.305
BUGSAT 1 25 Sep 12:59:00 13:03:00 77° 77° (ENE) 13:07:06 437.445
PCSat 25 Sep 13:06:24 13:08:09 11° 102° (ESE) 13:09:53 145.827
QB50P2 25 Sep 13:08:32 13:11:13 16° 268° (W) 13:13:54 145.880/145.840
SO-50 25 Sep 13:17:20 13:21:14 30° 115° (ESE) 13:25:11 436.795
LO-87 25 Sep 13:24:49 13:26:32 13° 294° (WNW) 13:28:15 145.935 - 145.965
YUBILEINY 25 Sep 13:30:18 13:38:41 51° 285° (WNW) 13:47:08 435.215
UKube-1 25 Sep 13:33:40 13:34:10 10° 90° (E) 13:34:40 .
DX 1 25 Sep 13:42:26 13:45:46 21° 94° (E) 13:49:06 434.975-435.025
ESTCUBE 1 25 Sep 13:57:43 14:00:09 15° 298° (WNW) 14:02:36 437.505/2401.250
SPROUT 25 Sep 13:59:14 14:03:19 43° 288° (WNW) 14:07:23 437.525
Oscar 19 25 Sep 14:15:01 14:19:56 42° 262° (W) 14:24:53 437.125/150
VELOX 1 25 Sep 14:15:57 14:20:05 42° 289° (WNW) 14:24:13 145.980
Gurwin Techsat 1B 25 Sep 14:16:18 14:21:32 61° 259° (WSW) 14:26:49 435.225
NO-84 25 Sep 14:19:54 14:22:51 22° 333° (NNW) 14:25:38 435.350 FM
50 SAT 25 Sep 14:22:05 14:25:25 89° 164° (SSE) 14:28:42 437.505
AO-7 25 Sep 14:37:57 14:45:48 48° 62° (ENE) 14:53:39 .
RS-15 25 Sep 14:42:26 14:54:26 82° 241° (WSW) 15:05:46 29.354- 29.394
PCSat 25 Sep 14:45:15 14:50:41 88° 119° (ESE) 14:56:09 145.827
SO-50 25 Sep 14:57:35 15:01:38 32° 312° (NW) 15:05:43 436.795
UKube-1 25 Sep 15:06:21 15:10:38 71° 287° (WNW) 15:14:55 .
BEESAT 25 Sep 15:10:33 15:13:28 16° 91° (E) 15:16:21 436.000
DX 1 25 Sep 15:18:05 15:22:01 34° 291° (WNW) 15:25:56 434.975-435.025
MOZHAYETS 4 25 Sep 15:22:37 15:26:09 21° 93° (E) 15:29:40
ITAMSAT 1 25 Sep 15:24:10 15:29:14 61° 72° (ENE) 15:34:21 435.822/435.867
